Back to catalog

COSMOS 533

AliveMilitaryLEO
NORAD 6268·PAYLOAD·🇷🇺 Russia

Launched Nov 1, 1972 from Plesetsk Cosmodrome

Loading…

Next Passes (next 24 hours)

TLE

FreshSource: Space-Track

Epoch: Sep 14, 2026, 00:26 UTC

1 06268U 72087F   26257.01818448 -.00000022  00000-0 -29595-4 0  9992
2 06268  74.0320  80.9783 0097090 134.9203  25.3438 12.67615047492551

Track COSMOS 533 in real time with AllMySat

Download on the App Store